Content
SEND FEEDBACK

Daily
Averages
Monthly
Summary
United States of America

DUNSMUIR, CALIFORNIA


Home > North America > United States > California
Elevation: 3289 feet     Latitude: 41 12N     Longitude: 122 16W

WEATHER
 
SELECT A DAY
Number of Records: 231,538;   Date Range: 1/1/95 - 9/3/14
 
SHARE

PRINT THIS DATA

[ ← Previous Day ]
WEATHER ALMANAC - NOVEMBER 21, 2013
[ Next Day → ]
[ °C ]   °F
Weather ElementAverageHighLow
Temperature35.7 °F43 °F (1:56 pm)30 °F (5:56 am)
Dewpoint5.7 °F18 °F (1:56 am)1 °F (9:56 pm)
Humidity30.2 %54 % (1:56 am)19 % (3:56 pm)
Barometer30.34 in30.48 in (9:56 pm)30.15 in (1:56 am)
Wind Speed5.9 mph11.5 mph (11:56 am)
Wind Gust27.6 mph (12:56 pm)
Weather ElementAverage
Visibility10 mi
Wind DirectionE (90.4 °)

Weather ElementTotal
Precipitation---
Heating Degree Days28.5 (Base 65)
Averaged from 23 records on November 21, 2013
WEATHER CONDITIONS BREAKOUT
WIND DIRECTION BREAKOUT
WEATHER BY HOUR - NOVEMBER 21, 2013
[ °C ]   °F
Local TimeTemperatureDewpointHumidityBarometerVisibilityWind DirectionWind SpeedGust SpeedPrecipitationEventsConditions
1:56 AM33.1 °F18.0 °F54 %30.15 in10.0 miVariable5.8 mphClear
2:56 AM32.0 °F16.0 °F52 %30.18 in10.0 miVariable3.5 mphClear
3:56 AM30.9 °F14.0 °F50 %30.20 in10.0 miNorthClear
4:56 AM30.9 °F12.0 °F46 %30.23 in10.0 miVariable3.5 mphClear
5:56 AM30.0 °F9.0 °F41 %30.27 in10.0 miCalmClear
6:56 AM30.0 °F7.0 °F38 %30.29 in10.0 miNorthClear
7:56 AM30.0 °F5.0 °F35 %30.31 in10.0 miNW (320°)8.1 mphClear
8:56 AM32.0 °F3.0 °F29 %30.33 in10.0 miNNW (340°)8.1 mphClear
9:56 AM34.0 °F3.9 °F28 %30.35 in10.0 miVariable4.6 mphClear
10:56 AM37.0 °F3.9 °F25 %30.35 in10.0 miNNW (340°)9.2 mph17.3 mphClear
11:56 AM39.0 °F3.9 °F23 %30.34 in10.0 miWNW (300°)11.5 mph21.9 mphClear
12:56 PM42.1 °F5.0 °F22 %30.33 in10.0 miWNW (300°)10.4 mph27.6 mphClear
1:56 PM43.0 °F6.1 °F22 %30.35 in10.0 miNorthClear
2:56 PM43.0 °F3.9 °F20 %30.34 in10.0 miVariable5.8 mph17.3 mphClear
3:56 PM43.0 °F3.0 °F19 %30.36 in10.0 miVariable4.6 mphClear
4:56 PM39.9 °F1.9 °F20 %30.38 in10.0 miVariable4.6 mphClear
5:56 PM39.9 °F1.9 °F20 %30.40 in10.0 miVariable3.5 mphClear
6:56 PM37.0 °F3.0 °F24 %30.42 in10.0 miVariable4.6 mphClear
7:56 PM36.0 °F3.0 °F25 %30.46 in10.0 miNE (40°)4.6 mphClear
8:56 PM35.1 °F1.9 °F25 %30.47 in10.0 miNNE (30°)8.1 mphClear
9:56 PM36.0 °F1.0 °F23 %30.48 in10.0 miVariable6.9 mphClear
10:56 PM35.1 °F1.9 °F25 %30.48 in10.0 miNE (50°)6.9 mphClear
11:56 PM32.0 °F3.0 °F29 %30.46 in10.0 miNorth (360°)4.6 mphClear
Hourly data recorded from KMHS, located miles away from Dunsmuir, California







STORIES FROM OUR PARTNERS